{"data":{"norad_id":61599,"intl_designator":"2024-188F","name":"ONEWEB-0691","alt_names":[],"object_type":"PAYLOAD","status":"ACTIVE","operator":null,"country":"UK","launch_date":"2024-10-20","launch_site_code":"AFWTR","launch_vehicle":null,"mission":null,"orbit_class":"UNKNOWN","rcs_meters":null,"size_class":null,"mass_kg":null,"dimensions":null,"purposes":["comms"],"wikipedia_slug":null,"has_3d_model":false,"image_url":null,"decayed_at":null,"tle_current":{"epoch":"2026-09-19T13:47:59.217216Z","epoch_age_seconds":98271,"freshness":"FRESH","line1":"1 61599U 24188F   26262.57499094  .00000533  00000+0  14677-2 0  9995","line2":"2 61599  87.8986   2.2227 0002059 109.5579 250.5772 13.11416903 96850","mean_motion":13.11416903,"eccentricity":0.0002059,"inclination_deg":87.8986,"raan_deg":2.2227,"arg_perigee_deg":109.5579,"mean_anomaly_deg":250.5772,"bstar":0.0014677,"rev_number":9685,"period_min":109.80489855711,"perigee_km":1216.1188812424,"apogee_km":1219.246839861,"semimajor_km":7595.8198605517,"source":"CELESTRAK","updated_at":"2026-09-20T09:00:44.799039Z"}}}